This is the latest recevied weather packets stored in our database for station/object K3HW. If no packets are shown the sender has not sent any weather packets the latest 10 day(s).
| Time | Temp. | Humidity | Pressure | Rain* | Wind** | Luminosity | Snow |
|---|---|---|---|---|---|---|---|
| 1778199590 | 13.33° C | 50% | 1011.8 hPa | 0 mm | - | 0 W/m² | - |
| 1778199286 | 13.89° C | 50% | 1011.8 hPa | 0 mm | - | 0 W/m² | - |
| 1778198983 | 13.89° C | 51% | 1012 hPa | 0 mm | - | 1 W/m² | - |
| 1778198679 | 14.44° C | 48% | 1011.9 hPa | 0 mm | - | 1 W/m² | - |
| 1778198376 | 14.44° C | 48% | 1011.7 hPa | 0 mm | - | 2 W/m² | - |
| 1778198073 | 15° C | 50% | 1011.6 hPa | 0 mm | - | 3 W/m² | - |
| 1778197770 | 15.56° C | 46% | 1011.7 hPa | 0 mm | - | 4 W/m² | - |
| 1778197467 | 16.11° C | 47% | 1011.7 hPa | 0 mm | - | 5 W/m² | - |
| 1778197163 | 16.11° C | 45% | 1011.5 hPa | 0 mm | - | 6 W/m² | - |
| 1778196860 | 16.67° C | 39% | 1011.7 hPa | 0 mm | - | 9 W/m² | - |
| 1778196559 | 16.67° C | 40% | 1011.6 hPa | 0 mm | - | 11 W/m² | - |
| 1778196255 | 17.22° C | 37% | 1011.8 hPa | 0 mm | - | 13 W/m² | - |
| 1778195952 | 17.22° C | 38% | 1011.4 hPa | 0 mm | - | 17 W/m² | - |
| 1778195649 | 17.22° C | 38% | 1011.5 hPa | 0 mm | - | 18 W/m² | - |
| 1778195345 | 17.22° C | 38% | 1011.7 hPa | 0 mm | - | 21 W/m² | - |
| 1778195043 | 17.78° C | 37% | 1011.5 hPa | 0 mm | - | 22 W/m² | - |
| 1778194743 | 17.78° C | 36% | 1011.5 hPa | 0 mm | - | 19 W/m² | - |
| 1778194439 | 17.22° C | 38% | 1011.5 hPa | 0 mm | - | 21 W/m² | - |
| 1778194135 | 17.22° C | 37% | 1011.5 hPa | 0 mm | - | 24 W/m² | - |
| 1778193832 | 16.67° C | 38% | 1011.8 hPa | 0 mm | - | 48 W/m² | - |
| 1778193527 | 17.22° C | 38% | 1011.6 hPa | 0 mm | - | 19 W/m² | - |
| 1778193224 | 17.78° C | 38% | 1011.5 hPa | 0 mm | - | 20 W/m² | - |
| 1778192921 | 17.78° C | 36% | 1011.6 hPa | 0 mm | - | 36 W/m² | - |
| 1778192617 | 17.78° C | 36% | 1011.7 hPa | 0 mm | - | 26 W/m² | - |
| 1778192315 | 18.33° C | 40% | 1011.6 hPa | 0 mm | - | 38 W/m² | - |
* Rain latest hour (hover to see other rain measurements)
** Current wind speed in m/s (hover to see current wind gust speed)